Вернуться в каталог

FENGYUN 1C DEB *

LostSSO
NORAD 47020·DEBRIS·🇨🇳 China

Запущен May 10, 1999 с Taiyuan Satellite Launch Center

Loading…

Ближайшие Пролёты (ближайшие 24 часа)

TLE

УстаревшееSource: Space-Track

Эпоха: Oct 15, 2021, 03:16 UTC

1 47020U 99025FAW 21288.13668615  .00001284  00000-0  75378-3 0  9993
2 47020  98.5079 321.0647 0106769 241.9598 145.3249 14.07002334470602

Отслеживайте FENGYUN 1C DEB * в реальном времени с AllMySat

Download on the App Store